This is the latest recevied weather packets stored in our database for station/object WX1NWA. If no packets are shown the sender has not sent any weather packets the latest 10 day(s).
| Time | Temp. | Humidity | Pressure | Rain* | Wind** | Luminosity | Snow |
|---|---|---|---|---|---|---|---|
| 1777388016 | 15.56° C | 95% | 1018.1 hPa | 0 mm | - | 180 W/m² | - |
| 1777387713 | 15.56° C | 96% | 1018.3 hPa | 0 mm | - | 242 W/m² | - |
| 1777387410 | 15.56° C | 96% | 1018.4 hPa | 0 mm | - | 150 W/m² | - |
| 1777387109 | 15.56° C | 96% | 1018.6 hPa | 0 mm | - | 107 W/m² | - |
| 1777386805 | 15.56° C | 96% | 1018.3 hPa | 0 mm | - | 157 W/m² | - |
| 1777386503 | 15.56° C | 96% | 1018.3 hPa | 0 mm | - | 146 W/m² | - |
| 1777386200 | 15.56° C | 95% | 1018.5 hPa | 0 mm | - | 127 W/m² | - |
| 1777385897 | 15.56° C | 96% | 1018.4 hPa | 0 mm | - | 138 W/m² | - |
| 1777385593 | 15.56° C | 95% | 1018.4 hPa | 0 mm | - | 158 W/m² | - |
| 1777385291 | 15.56° C | 95% | 1018.8 hPa | 0 mm | - | 141 W/m² | - |
| 1777384986 | 15.56° C | 95% | 1018.4 hPa | 0 mm | - | 132 W/m² | - |
| 1777384684 | 15.56° C | 94% | 1018.5 hPa | 0 mm | - | 182 W/m² | - |
| 1777384383 | 15° C | 96% | 1018.5 hPa | 0 mm | - | 189 W/m² | - |
| 1777384079 | 15° C | 96% | 1018.6 hPa | 0 mm | - | 219 W/m² | - |
| 1777383776 | 15° C | 97% | 1018.5 hPa | 0 mm | - | 238 W/m² | - |
| 1777383472 | 15° C | 97% | 1019 hPa | 0 mm | - | 216 W/m² | - |
| 1777383168 | 15° C | 99% | 1018.5 hPa | 0 mm | - | 197 W/m² | - |
| 1777382866 | 14.44° C | 99% | 1018.5 hPa | 0 mm | - | 145 W/m² | - |
| 1777382561 | 15° C | 99% | 1018.8 hPa | 0 mm | - | 129 W/m² | - |
| 1777382257 | 14.44° C | 99% | 1018.7 hPa | 0 mm | - | 206 W/m² | - |
| 1777381953 | 13.89° C | 99% | 1018.4 hPa | 0 mm | - | 187 W/m² | - |
| 1777381654 | 14.44° C | 99% | 1018.4 hPa | 0 mm | - | 85 W/m² | - |
| 1777381350 | 14.44° C | 99% | 1018.5 hPa | 0 mm | - | 83 W/m² | - |
| 1777381046 | 14.44° C | 99% | 1018.5 hPa | 0 mm | - | 124 W/m² | - |
| 1777380742 | 14.44° C | 99% | 1018.5 hPa | 0 mm | - | 102 W/m² | - |
* Rain latest hour (hover to see other rain measurements)
** Current wind speed in m/s (hover to see current wind gust speed)